Location: Newark
(41.0400°S, 62.7845°W)
Time: 02:34:15
(UTC+00:00)

Transit 2A - Pass Details

Date: 06 December 2021
Orbit: 591 x 967 km, 66.7° (Epoch: 20 January)

Event Time Altitude Azimuth Distance (km) Brightness Sun altitude
Rises 02:09:14 0° 232° (SW) 2,874 10.1 -21.3°
Reaches altitude 10° 02:12:33 10° 259° (WSW) 1,992 8.6 -21.6°
Maximum altitude 02:14:38 13° 287° (WNW) 1,810 8.0 -21.7°
Enters shadow 02:16:17 11° 309° (NW) 1,958 8.0 -21.9°
Drops below altitude 10° 02:16:45 10° 315° (NW) 2,042 - -21.9°
Sets 02:20:16 0° 341° (NNW) 3,013 - -22.2°
